Tracking 19562 objects as of 25-Mar-2019
HD Live streaming from Space Station
objects crossing your sky now

COSMOS 1885 (GLONASS)

Track COSMOS 1885 (GLONASS) now!
COSMOS 1885 (GLONASS) is classified as:


NORAD ID: 18357
Int'l Code: 1987-079C
Perigee: 19,090.3 km
Apogee: 19,183.6 km
Inclination: 65.7 °
Period: 675.7 minutes
Semi major axis: 25507 km
RCS: 1.3999 m2 (large)
Launch date: September 16, 1987
Source: Commonwealth of Independent States (former USSR) (CIS)
Launch site: TYURATAM MISSILE AND SPACE COMPLEX (TTMTR)
aabbcc
Your satellite tracking list
Your tracking list is empty




NASA's NSSDC Master Catalog

Two Line Element Set (TLE):
1 18357U 87079C   19083.73484090 -.00000039 +00000-0 +00000-0 0  9994
2 18357 065.7430 047.1041 0018279 215.9769 145.5109 02.13102756228851
Source of the keplerian elements: AFSPC